Theta_e
312 310 308 307 306 306 305 305 305 306 310 312 312 313 313 313 312 312 315 316 318 320 317 318 318 320 320 320 324 321 323 324 326 329 332 330 329 328 328 326 327 325 331 334 334 338 336 331 332 330 326 334 333 333
312 310 308 306 306 306 305 305 305 308 310 311 311 312 312 312 312 311 313 314 315 316 316 318 318 318 318 318 318 319 321 322 323 328 330 328 331 329 330 336 330 330 332 331 333 337 331 330 331 330 329 331 333 334
312 310 307 306 306 305 304 305 305 309 311 311 311 311 311 311 311 311 311 312 315 312 314 315 316 319 318 317 319 319 318 320 319 323 324 328 332 328 333 333 334 333 331 334 332 333 334 334 332 330 329 330 330 334
311 309 307 306 306 305 304 304 305 309 311 311 310 310 309 309 309 309 309 312 313 314 319 315 317 316 316 317 316 318 318 319 316 317 321 324 328 325 330 329 331 331 330 333 332 331 334 334 335 333 332 331 343 342
311 309 306 306 305 304 304 304 306 309 310 311 310 309 309 309 309 309 310 312 313 313 318 316 315 317 316 317 321 321 319 317 316 319 320 323 321 325 323 326 330 332 331 331 332 330 332 333 334 335 333 331 338 341
310 307 306 305 305 303 304 305 307 309 311 310 310 309 309 308 308 311 311 314 314 313 315 315 312 313 316 317 321 321 320 319 321 322 322 319 319 323 325 326 325 330 331 329 331 330 331 332 333 333 331 332 336 339
309 306 306 305 304 303 304 305 307 309 310 309 308 308 308 308 307 308 313 315 313 311 316 316 315 315 320 320 320 318 319 320 320 320 320 321 321 320 323 327 323 324 328 331 331 330 331 332 336 333 334 330 335 338
308 306 306 305 303 303 305 305 307 308 307 307 306 306 307 307 308 309 313 313 312 311 312 316 315 315 319 320 322 318 319 319 319 319 319 320 319 319 322 321 320 323 324 327 333 332 331 331 332 332 332 330 339 333
307 306 305 304 302 303 304 306 306 305 304 304 305 307 308 309 310 314 312 313 312 313 315 315 319 318 316 317 316 317 317 319 317 321 320 320 321 324 322 322 324 330 326 329 331 330 332 332 332 332 330 329 336 332
306 305 304 302 302 303 304 306 306 304 303 305 309 310 313 313 313 313 313 314 313 314 311 316 311 313 316 317 318 320 319 322 326 321 319 321 321 320 319 319 321 327 329 330 330 331 330 332 329 328 330 328 334 332
305 305 303 301 303 304 304 306 305 303 308 309 310 310 311 310 314 316 318 318 316 318 312 311 312 318 318 320 321 320 321 323 327 326 325 329 324 322 323 320 320 327 328 329 330 330 327 328 329 327 328 328 332 334
305 304 301 302 303 304 304 304 304 304 307 305 306 307 308 311 317 318 320 321 319 319 317 317 321 320 319 318 319 320 322 324 328 328 331 331 325 327 326 323 321 325 325 329 329 331 333 331 328 327 327 327 333 334
304 302 301 302 304 304 303 304 304 303 303 307 308 310 314 316 313 320 321 325 324 321 323 322 322 320 318 318 320 321 324 325 324 330 333 330 327 326 325 325 321 322 325 329 333 331 331 331 331 331 329 329 333 333
302 301 301 303 305 304 303 303 303 303 306 310 313 312 317 319 319 320 323 323 322 321 321 323 324 322 321 321 321 323 324 325 330 334 329 325 327 325 327 326 327 326 329 332 329 328 331 332 331 331 331 330 333 335
301 300 301 304 304 303 302 303 303 305 308 313 314 315 315 315 319 319 319 321 322 319 321 325 324 323 323 323 323 324 328 332 332 332 330 327 325 326 326 328 326 328 330 330 328 331 332 331 331 331 330 330 332 333
300 301 303 303 303 304 303 303 305 306 310 312 313 314 315 317 318 317 317 318 317 319 321 322 326 327 326 326 328 326 328 329 328 329 327 326 326 326 328 326 325 326 327 329 329 330 331 330 328 330 329 328 330 331
302 305 306 303 305 304 304 307 308 309 312 312 314 311 312 313 313 313 316 317 316 319 323 324 327 328 326 328 329 328 330 328 326 327 325 325 327 328 324 325 325 327 328 330 330 329 330 331 331 330 329 328 327 328
305 307 306 305 304 305 305 306 309 312 312 309 311 311 313 313 313 316 316 314 317 318 319 323 322 326 327 329 326 324 325 324 324 325 325 326 325 325 325 326 326 327 326 330 332 332 330 331 331 328 328 329 333 333
305 306 306 304 305 307 308 308 309 312 311 310 310 311 313 312 312 313 314 314 317 317 320 322 322 326 326 322 322 322 322 322 322 324 325 324 324 325 325 325 325 325 326 327 326 326 326 327 327 328 327 328 327 330
306 307 307 306 305 309 311 311 310 312 313 315 313 313 313 313 314 315 315 317 317 321 320 322 323 322 320 322 324 321 321 321 323 323 322 322 322 324 324 324 323 323 324 325 327 327 326 325 325 325 326 326 327 328
306 307 305 305 306 307 309 312 315 312 314 314 314 317 316 315 315 318 319 318 320 319 321 319 320 320 319 321 324 323 321 321 321 322 322 321 320 323 322 323 324 324 323 324 323 323 324 323 322 324 324 324 324 325
308 307 306 306 309 311 310 311 312 314 314 314 315 315 318 318 320 319 318 319 318 319 320 321 321 321 322 321 322 325 325 324 321 321 322 322 322 323 321 323 323 324 324 324 323 322 323 324 326 328 328 329 330 330
308 309 310 310 310 310 309 313 315 315 318 320 316 317 319 320 321 318 320 320 320 319 319 320 322 324 322 324 326 325 326 325 321 321 322 323 323 323 323 323 323 323 322 324 325 324 324 326 326 326 326 326 326 326
309 310 313 314 312 308 312 315 315 316 317 316 316 317 318 318 315 316 319 317 317 315 317 320 322 321 321 322 321 320 323 325 324 323 323 322 322 322 324 325 325 325 324 323 322 322 323 324 324 323 323 322 323 325
312 306 306 305 309 316 317 318 320 320 319 316 318 319 319 319 321 321 321 318 318 320 319 319 320 321 322 322 319 321 324 325 322 320 323 322 323 325 325 323 323 323 322 321 321 321 321 322 321 321 321 322 323 322
308 308 309 314 315 317 319 321 318 317 317 319 319 318 320 322 323 323 319 317 319 320 319 319 321 320 321 319 319 320 324 325 324 323 324 324 324 324 322 320 318 319 321 320 320 320 320 320 320 319 320 320 320 320
307 311 312 312 313 316 317 317 317 318 320 321 321 323 323 325 324 321 318 317 317 320 321 322 323 320 320 321 325 324 323 322 322 323 324 323 323 321 319 319 318 316 315 317 319 319 319 318 318 318 318 318 318 317
313 313 314 314 315 315 317 318 320 320 319 320 321 325 324 324 322 319 319 320 321 322 324 325 324 324 323 324 324 323 319 319 319 321 322 321 319 319 318 318 317 317 317 317 317 316 316 315 315 315 315 316 315 315
313 313 314 316 316 317 318 319 319 318 318 320 321 322 323 320 319 319 321 322 322 323 322 324 326 325 321 323 323 321 319 319 317 316 316 316 315 319 317 317 316 317 318 318 317 317 317 317 317 317 317 316 316 315
313 313 315 318 320 321 319 316 317 317 318 318 319 321 321 319 321 321 322 322 322 322 322 323 324 324 322 323 322 322 321 321 321 318 315 317 317 318 319 318 317 316 316 316 317 317 318 318 317 318 318 318 317 317
313 315 316 319 321 320 319 316 316 316 321 320 320 322 323 321 322 323 322 321 322 322 322 321 321 323 321 321 321 319 318 319 319 319 319 319 319 318 318 318 319 320 318 318 319 317 317 319 319 319 319 319 318 318
314 316 320 322 322 321 321 321 323 321 319 320 320 319 319 321 322 318 320 320 320 320 321 320 319 319 320 320 320 319 319 319 319 319 319 319 319 319 318 319 318 318 319 319 317 317 318 318 318 318 317 316 315 316
315 315 318 322 323 323 321 322 325 320 320 321 321 322 320 321 322 316 319 319 320 321 320 320 320 320 319 319 319 318 318 317 317 316 314 316 317 318 318 318 319 318 318 317 317 317 316 318 318 319 318 316 312 308
Wind_Speed
12 12 12 13 14 14 14 14 15 12 12 13 12 12 12 13 13 14 9 9 5 3 6 10 6 3 4 3 2 4 6 5 4 6 3 3 1 2 1 4 3 4 3 4 3 2 7 7 4 6 7 4 7 5
13 12 12 12 13 14 13 13 13 10 10 12 11 11 11 11 11 11 5 11 12 5 6 26 28 28 23 27 4 3 3 2 4 3 3 2 3 3 1 2 5 1 3 3 7 6 6 2 4 7 1 4 4 8
13 12 12 11 12 13 12 12 11 9 9 10 11 11 10 10 11 10 9 12 7 3 6 3 6 11 15 16 27 4 3 6 3 3 2 2 3 1 1 2 2 6 2 1 4 1 4 1 1 7 13 7 6 7
13 11 12 11 11 12 11 12 10 8 8 10 10 11 11 12 12 12 9 9 6 4 3 6 18 21 24 18 12 28 25 9 3 2 3 3 2 1 3 4 3 5 3 2 5 6 4 2 2 2 13 16 7 8
13 12 11 10 10 10 10 10 9 8 9 9 10 11 12 13 15 16 16 10 7 2 3 6 25 12 20 20 4 9 5 3 2 0 2 4 3 2 2 1 3 4 6 4 5 5 3 4 2 1 9 7 5 15
13 12 10 9 9 9 8 9 7 8 8 9 10 11 12 14 15 8 2 5 5 5 2 4 7 8 20 12 12 8 5 2 2 3 3 3 5 3 3 3 5 4 3 6 4 5 5 7 7 5 7 7 4 5
14 12 9 9 8 8 7 8 7 9 9 10 11 13 13 13 13 3 4 2 3 10 2 4 5 5 7 6 4 4 5 2 2 2 3 4 3 4 3 9 5 7 6 3 3 4 1 1 4 6 6 13 6 10
13 11 10 9 8 8 7 7 7 8 8 10 12 13 14 15 13 8 5 7 13 5 2 3 4 5 6 3 2 3 3 3 3 3 2 2 1 3 5 7 9 12 15 9 9 12 5 5 2 6 5 7 12 11
12 11 10 9 8 7 6 6 6 7 9 12 14 14 5 2 2 3 4 2 7 1 2 2 2 3 4 3 2 3 2 2 3 2 3 3 3 6 8 9 8 8 9 11 9 5 8 8 9 9 2 5 11 12
13 10 10 10 8 7 6 7 6 7 11 11 6 2 1 1 6 6 2 0 1 0 1 3 2 4 3 2 2 3 0 2 2 4 0 2 4 10 9 9 8 7 8 7 7 6 7 14 11 14 8 6 10 15
12 11 10 10 8 7 5 3 3 8 2 2 3 2 6 7 2 2 2 3 2 2 3 4 5 3 1 2 2 1 3 3 2 2 3 3 3 4 11 19 15 8 7 7 6 2 5 10 18 7 7 9 10 18
12 11 10 9 8 7 5 4 3 3 2 5 7 7 4 2 2 2 3 3 4 3 2 3 2 3 2 0 1 2 2 2 5 1 3 3 2 11 14 12 17 13 8 7 6 5 4 7 11 6 10 8 18 26
13 10 10 9 8 8 6 4 4 4 6 4 2 2 2 1 1 4 3 1 2 3 4 3 2 2 1 1 2 2 3 5 4 3 2 3 8 11 13 14 6 10 6 4 6 7 10 8 3 8 4 14 24 24
11 11 10 9 9 8 6 5 5 3 2 2 2 3 3 3 4 3 2 3 4 3 3 2 2 3 2 2 2 3 4 2 3 2 2 5 12 13 12 7 8 4 7 6 7 6 4 2 6 7 4 9 23 16
11 10 9 11 10 7 6 6 5 4 2 2 3 3 5 5 3 5 6 2 4 2 1 1 2 2 2 2 2 3 3 3 2 3 2 7 14 15 15 12 5 2 3 7 7 6 5 8 6 7 17 5 21 24
10 8 11 9 8 6 7 5 4 3 3 3 4 3 5 3 3 3 2 3 3 2 0 1 2 2 3 2 3 3 4 3 3 3 6 11 13 14 7 1 5 3 9 11 12 7 7 7 7 14 17 11 12 19
11 4 4 12 9 9 9 5 4 3 3 3 4 4 7 6 5 4 3 4 1 2 1 1 2 0 2 2 3 1 3 4 4 4 5 12 12 13 9 4 7 13 13 11 18 14 7 9 11 2 5 7 5 3
4 2 8 11 12 9 4 4 3 3 5 5 3 5 3 4 4 6 3 3 2 2 2 3 1 2 2 3 3 3 3 4 4 4 4 5 10 12 10 15 21 26 20 10 16 12 11 9 6 3 17 21 22 21
4 6 10 13 11 3 4 4 4 3 5 4 5 4 4 4 4 4 3 4 5 5 2 0 1 2 2 3 3 3 3 2 3 4 3 3 6 7 13 20 12 21 17 8 26 5 14 16 11 11 15 21 17 13
3 6 10 13 12 2 2 3 6 3 4 3 3 3 3 4 4 3 4 3 2 3 2 2 3 3 3 3 2 3 2 2 2 4 4 4 8 7 6 3 6 17 18 15 18 22 19 17 18 16 18 20 19 15
6 6 9 10 6 6 3 3 3 4 4 2 3 2 3 2 3 2 2 2 2 3 3 3 2 2 2 3 2 1 3 1 0 2 2 4 7 8 10 16 16 16 11 10 5 9 16 11 15 20 21 18 16 14
4 10 5 8 4 4 3 7 3 4 2 3 3 2 3 2 2 2 3 1 2 2 1 1 2 1 1 3 3 4 6 4 1 4 8 7 4 3 4 10 14 8 13 13 15 11 16 18 22 23 24 23 20 17
11 6 3 7 4 2 6 4 3 3 2 3 4 3 2 2 2 4 1 2 2 1 2 3 4 8 4 8 6 8 7 8 2 1 6 5 2 9 16 16 17 11 6 10 12 17 17 17 17 19 17 17 16 17
4 2 3 4 6 4 3 2 3 2 2 3 3 4 4 3 4 3 3 3 3 3 4 5 4 4 5 3 1 2 5 3 0 6 8 5 2 5 8 14 15 16 14 12 13 15 16 17 17 18 16 14 13 11
2 4 4 4 3 2 3 2 1 2 2 2 2 2 2 3 2 2 2 3 3 3 3 4 3 2 2 2 2 7 8 9 8 5 11 6 12 14 12 11 11 13 12 14 15 14 14 16 17 16 15 13 15 15
2 3 5 3 2 1 3 1 1 1 0 2 3 2 1 0 1 3 3 2 2 2 2 2 2 3 3 2 1 3 9 9 14 4 3 5 8 17 5 4 3 13 13 13 13 16 16 15 17 18 17 16 15 15
2 4 4 4 2 1 1 1 2 1 2 2 2 2 2 2 2 3 3 3 4 6 9 12 9 4 3 6 2 8 12 17 18 11 17 18 18 22 22 15 10 21 23 23 22 20 19 19 19 18 17 19 17 17
4 3 3 1 3 2 1 2 2 3 2 2 2 2 1 2 2 3 5 10 7 13 8 9 5 6 4 6 8 10 15 18 20 22 22 20 18 15 13 15 19 16 17 18 20 21 22 21 20 19 19 20 18 16
3 3 1 3 5 4 1 1 2 2 2 1 1 2 2 3 3 3 5 3 6 13 4 3 7 7 4 3 6 9 9 13 15 10 9 4 4 8 11 13 15 14 13 12 10 9 7 8 9 10 11 13 13 14
4 4 2 1 3 1 3 5 3 3 2 3 2 3 3 3 6 10 15 17 7 13 9 9 8 14 12 8 2 4 5 1 4 12 5 4 7 9 6 5 9 12 9 9 10 8 4 3 2 4 2 2 5 8
3 2 4 4 3 3 3 3 2 2 3 3 1 2 3 3 7 7 4 3 11 20 16 12 12 16 15 13 10 5 2 9 8 12 10 8 11 18 11 2 1 4 12 8 5 8 9 11 7 3 5 6 7 4
1 2 3 2 3 2 2 3 2 1 2 1 2 1 3 2 2 3 3 11 8 9 11 17 19 14 16 15 16 16 17 18 20 20 23 20 18 15 12 13 12 10 9 6 6 7 9 8 4 1 6 14 15 16
1 1 3 2 3 3 2 2 2 2 3 3 2 2 2 2 3 4 6 11 11 17 16 18 20 22 22 19 16 15 14 14 14 14 17 18 17 16 14 14 12 13 12 11 6 7 11 7 7 4 1 11 24 26
Wind_Direction
292 296 302 309 314 319 324 329 333 336 340 333 338 340 339 339 346 346 309 37 2 275 279 258 257 239 317 260 229 299 350 355 355 30 28 315 17 239 182 214 217 197 211 235 105 33 283 347 326 167 211 171 145 122
285 290 298 304 310 314 320 324 330 336 330 329 334 334 340 342 345 347 308 326 336 228 255 291 279 264 251 244 234 291 232 244 245 45 2 341 338 327 149 266 341 43 207 232 181 202 228 280 252 294 36 106 102 118
274 282 289 298 305 310 316 320 325 326 319 320 327 331 335 337 334 333 312 326 334 297 293 272 267 293 285 274 230 173 264 215 296 175 181 262 245 129 332 243 26 326 333 154 21 82 261 323 290 41 28 356 137 129
265 270 279 290 300 307 310 316 317 315 308 310 318 327 334 332 326 319 303 292 306 276 285 285 326 313 302 309 252 223 234 260 213 158 182 214 219 140 212 235 188 216 356 268 284 261 229 286 98 67 26 14 66 90
255 262 270 283 295 301 306 314 317 313 298 300 311 321 326 327 324 315 296 290 221 206 293 289 303 298 304 317 117 70 142 184 145 327 168 216 209 200 250 160 230 184 213 177 230 253 278 239 240 343 61 16 331 120
248 253 263 275 286 294 300 311 313 291 296 305 310 313 319 324 330 334 358 81 170 217 274 313 303 300 308 316 57 44 30 51 128 166 230 245 218 156 244 229 244 179 213 203 242 219 180 283 274 152 93 51 38 184
240 246 256 266 278 280 291 304 290 287 292 302 307 308 309 315 315 254 260 165 343 342 276 303 303 277 347 39 33 9 10 342 164 238 228 200 235 156 201 250 264 306 256 210 215 190 186 121 263 309 68 14 182 202
234 242 249 259 267 267 284 294 284 290 303 309 307 309 307 304 292 295 326 287 247 273 299 273 275 321 354 12 1 355 357 351 288 232 304 199 327 145 251 237 206 224 254 246 218 229 254 163 190 283 26 20 149 171
228 235 243 251 258 253 275 281 277 299 313 314 310 310 314 275 255 334 14 0 180 161 281 288 281 277 360 347 350 346 69 303 299 256 247 146 205 219 224 205 199 198 208 222 204 197 187 170 196 240 143 353 206 159
221 227 237 247 245 240 265 275 268 297 311 313 318 278 262 240 290 295 240 242 55 270 233 249 261 278 40 330 296 318 226 255 266 245 292 211 252 242 232 229 237 203 198 182 172 196 190 207 201 213 188 206 202 172
214 218 231 242 231 230 244 255 276 316 4 329 319 271 300 314 277 220 250 201 146 234 215 231 216 234 287 234 264 273 299 274 259 275 174 234 269 275 292 232 227 203 200 197 224 270 191 226 212 213 217 209 186 178
209 217 224 229 221 218 225 232 246 313 330 326 297 296 296 303 236 260 232 182 197 239 180 238 239 193 245 198 232 248 259 267 256 322 218 253 242 334 333 315 217 208 186 204 208 226 242 253 216 242 225 186 181 184
203 212 217 217 215 209 212 209 227 283 300 282 242 257 211 193 5 232 229 158 282 223 209 204 252 197 198 221 242 277 262 240 316 240 278 293 313 331 325 330 231 203 152 170 242 247 226 202 134 234 152 185 182 175
201 205 211 211 209 205 207 218 232 263 256 237 240 275 220 199 234 208 279 281 254 214 256 185 218 200 179 191 226 254 251 307 256 253 192 259 309 309 317 322 10 41 152 182 251 262 267 220 230 235 152 193 161 167
196 201 210 213 204 208 208 210 211 222 257 248 202 242 227 237 252 233 261 207 250 188 191 232 222 169 191 255 227 283 256 273 256 268 277 313 305 304 314 320 342 5 328 183 257 263 248 268 211 212 202 199 152 145
184 203 218 191 181 188 183 182 192 211 248 239 229 272 261 287 292 315 290 267 226 202 61 207 203 201 224 237 225 237 292 273 285 339 329 309 296 301 289 332 339 315 299 183 211 245 268 164 166 208 199 213 215 163
180 205 181 172 175 176 176 183 200 227 251 240 237 224 251 267 250 250 225 259 195 10 276 295 288 102 175 235 242 244 303 286 281 312 293 294 350 16 21 48 359 5 352 342 233 232 167 133 52 3 148 153 114 333
180 131 169 166 163 149 180 221 244 244 250 244 242 255 246 237 258 273 247 253 124 218 138 240 238 99 252 304 317 276 288 292 285 277 288 328 353 8 22 29 14 350 330 343 87 82 147 98 88 281 74 92 80 83
208 210 178 176 171 184 191 228 213 257 243 243 248 255 251 255 245 249 254 264 243 192 160 4 259 186 240 238 231 279 293 296 296 306 316 21 46 7 23 44 16 299 272 143 92 141 103 104 144 123 100 83 84 83
92 159 183 186 186 252 239 234 206 242 271 252 265 245 223 228 242 253 275 259 221 109 306 226 223 215 202 241 219 216 251 288 345 340 335 353 3 13 73 117 307 353 32 50 77 81 76 79 81 89 74 74 69 68
158 158 158 169 202 242 270 265 235 223 263 261 277 286 261 296 270 272 280 308 124 196 220 229 283 261 181 260 210 275 294 344 243 151 294 323 329 353 28 16 11 24 20 27 42 56 72 60 55 71 69 59 58 65
183 155 149 193 243 230 242 235 227 275 254 248 302 216 265 283 327 330 292 352 230 238 220 282 281 286 305 276 280 290 283 245 229 98 64 42 345 0 20 10 12 18 4 5 62 54 59 70 79 74 73 71 66 56
149 177 222 198 237 253 256 201 215 243 234 279 354 337 330 5 345 330 316 244 240 268 302 273 293 314 267 284 300 294 261 237 258 88 118 116 43 21 10 353 357 357 340 13 64 75 71 67 70 75 74 69 70 61
195 229 232 202 193 253 268 234 232 268 31 24 4 322 343 320 323 28 286 291 286 310 335 313 311 312 331 348 328 275 255 229 236 209 237 132 58 330 342 1 13 62 75 86 77 70 62 66 75 66 59 53 46 60
205 260 127 276 264 250 248 263 37 29 41 2 309 280 294 345 340 303 281 278 296 307 321 329 335 321 276 295 324 333 26 157 166 228 266 92 104 85 96 84 63 56 52 58 58 62 62 72 67 64 57 54 85 76
219 236 162 243 220 186 316 75 70 102 338 272 246 266 250 203 256 284 269 254 267 270 294 295 307 332 319 299 333 342 355 79 142 125 47 184 198 152 136 107 64 50 51 63 73 78 73 71 72 69 62 63 72 80
265 256 224 227 227 197 102 130 114 165 256 248 236 202 205 170 175 260 259 230 223 241 284 287 269 231 279 308 36 91 104 109 106 101 104 103 116 130 120 108 94 90 80 78 84 85 83 76 71 70 74 73 76 84
246 258 204 272 55 22 267 244 199 222 251 281 315 245 255 243 224 236 215 255 303 314 306 274 246 263 160 168 98 96 100 100 104 109 108 99 103 106 104 115 122 100 91 83 82 82 83 84 85 83 80 79 81 82
244 240 116 243 208 216 187 227 235 237 216 191 248 263 244 238 243 247 280 298 233 196 143 151 213 197 159 114 80 104 119 106 102 83 75 70 44 89 101 101 109 104 107 103 94 85 78 88 97 91 92 97 98 96
241 178 227 63 31 310 230 184 204 205 205 221 252 310 307 286 275 313 312 322 64 143 178 206 193 174 178 199 203 200 190 157 138 143 146 164 173 136 73 64 142 138 138 155 144 129 95 68 126 108 101 161 164 144
276 193 154 179 237 238 234 205 265 254 230 195 286 250 257 291 313 309 319 23 118 156 164 200 185 175 161 162 174 138 159 158 139 179 179 199 195 147 159 96 155 236 202 194 126 44 36 15 13 76 86 117 93 99
230 156 114 234 281 277 172 198 165 89 333 104 274 262 303 314 288 298 324 44 114 162 124 122 118 129 150 159 145 139 135 121 116 116 117 125 141 155 165 172 142 160 195 193 123 69 67 36 6 71 99 111 104 101
86 292 143 92 324 308 291 39 24 65 32 3 309 265 246 228 289 213 174 142 155 160 160 153 150 144 140 140 137 134 125 122 119 115 114 129 133 140 149 162 167 168 160 152 144 91 73 145 188 188 351 116 107 105